{"data":{"norad_id":54023,"intl_designator":"2022-127A","name":"OTB-3-GAZELLE","alt_names":[],"object_type":"PAYLOAD","status":"ACTIVE","operator":null,"country":"US","launch_date":"2022-10-07","launch_site_code":"RLLB","launch_vehicle":null,"mission":null,"orbit_class":"UNKNOWN","rcs_meters":null,"size_class":null,"mass_kg":null,"dimensions":null,"purposes":[],"wikipedia_slug":null,"has_3d_model":false,"image_url":null,"decayed_at":null,"tle_current":{"epoch":"2026-09-20T21:48:33.715584Z","epoch_age_seconds":120222,"freshness":"FRESH","line1":"1 54023U 22127A   26263.90872356  .00000068  00000+0  33579-4 0  9991","line2":"2 54023  98.4043 254.1995 0011873 259.4388 100.5464 14.42702421208162","mean_motion":14.42702421,"eccentricity":0.0011873,"inclination_deg":98.4043,"raan_deg":254.1995,"arg_perigee_deg":259.4388,"mean_anomaly_deg":100.5464,"bstar":3.3579e-5,"rev_number":20816,"period_min":99.812683408535,"perigee_km":741.12086022433,"apogee_km":758.04634556797,"semimajor_km":7127.7206028962,"source":"CELESTRAK","updated_at":"2026-09-21T09:00:09.347131Z"}}}